STARLINK-2432, 47840

Orbit data source: Space-Track

STARLINK-2432, 47840 is a payload satellite owned by SpaceX/Seattle (US) in LEO that was launched on Thu, 11 Mar 2021 UTC via an FALCON 9 launch vehicle from the Air Force Eastern Test Range (AFETR). Payload-class satellites include a variety of spacecraft equipped with specific instruments for various scientific and technological missions. These include communications satellites like Starlink; space stations such as the ISS; scientific satellites like the Hubble; Earth observation satellites from companies like Planet Labs, Umbra, and HawkEye 360; GPS; miniature CubeSats for education and research; and military/defense satellites.

Loading next visibility...
Identifier
47840, 2021-018BF
Orbit
LEO
Country
Flag of USUS
Related business
Manufacturer
SpaceX/Seattle
Mission
Operational Commercial Communications
Bus & Motor
STARLINK, Unknown motor
Mass
260 kg wet, ~248 kg dry
Launch date (UTC)
2021-03-11 (5 years ago)
Launch vehicle
FALCON 9
Launch site
Air Force Eastern Test Range (AFETR)
Object type
Payload
Rocket body
Debris
Shape & HBR
Box + 1 Pan, 10.1 m
Radar Cross Section
13.562 m², Large (>1 m²)

Expand to show TLE details & history
Last TLE update: 15 hours ago

TLE from 15 hours ago
0 STARLINK-2432
1 47840U 21018BF  26035.17164173  .00001352  00000-0  10961-3 0  9992
2 47840  53.0565  22.0859 0001587  96.9392 263.1778 15.06407914271825
Epoch: 2026-02-04T04:07Z
TLE epoch observation values (Epoch: 2026-02-04T04:07:09.845Z)
Latitude
0.00001°
Longitude
-174.04716°
Altitude
548.197 km
Speed
7.589 km/s
True Right ascension
01h 28m 20s
True Declination
0° 00' 00"
Sunlit
Object was in daylight at epoch
Visualization orbit readout
Latitude
Unknown
Longitude
Unknown
Altitude
Unknown
Speed
Unknown
Apparent Right ascension
Unknown
Apparent Declination
Unknown
Sunlit
N/A
Visualization observer readout
Local Sidereal Time
21:25:10
Azimuth
Unknown
Elevation
Unknown
Doppler factor
Unknown
Orbital elements
Apogee altitude
548.557 km
Perigee altitude
546.359 km
Semi-major axis
6,925.595 km
Eccentricity
0.00016
Inclination
53.0565°
RAAN
22.0859°
Arg. of periapsis
96.9392°
True anomaly
263.15974°
Mean anomaly
263.1778°
Eccentric anomaly
263.16877°
Mean motion
3.7658 °/min
Orbital period
95.6 mins
BSTAR
0.00010961
Loading maneuver chart data...
Computing Atmospheric mass density...
Loading historical data...
Loading historical data...
Loading historical data...
Loading historical data...
Loading historical data...
Loading historical data...
Loading historical data...

Documentation

Showing up to 5 results
|